Flag for Morocco Weather past 2 weeks in Tangier, Morocco

Now
66 °F

Partly sunny.


Feels Like: 66 °F
Forecast: 55 / 69 °F
Wind: 20 mph from Southeast

Location: Tanger Aerodrome

Current Time: Apr 21, 2015 at 10:57:02 AM

Latest Report: Apr 21, 2015 at 10:30 AM


Visibility: N/A

Pressure: 30.01 "Hg

Humidity: 64%

Dew point: 54 °F

Location of TangierLocation

Historic Weather in Tangier — Graph

°F

Tangier temperature yesterday

Maximum temperature yesterday: 70 °F (at 1:30 PM)
Minimum temperature yesterday: 46 °F (at 7:00 AM)
Average temperature yesterday: 60 °F

Past Weeks' High & Low Weather Summary

 TemperatureHumidityPressure
High72 °F (Apr 13, 1:00 PM)100% (Apr 17, 6:00 AM)30.21 "Hg (Apr 17, 6:00 AM)
Low46 °F (Apr 20, 7:00 AM)46% (Apr 20, 5:00 PM)29.89 "Hg (Apr 6, 9:00 AM)
Average61 °F76%30.06 "Hg
* Reported Apr 6 9:00 AM — Apr 21 9:30 AM, Tangier, Weather by CustomWeather, © 2015

Note: Actual official high and low records may vary slightly from our data, if they occured in-between our weather recording intervals... More about our weather records

Advertising

Tangier weather history for previous 24 hours

 ConditionsComfort  
Time TempWeatherWind HumidityBarometerVisibility
9:30 AM
Tue, Apr 21
66 °FPartly sunny.17 mph68%29.98 "HgN/A
9:00 AM64 °FPartly sunny.17 mph68%29.98 "HgN/A
8:30 AM63 °FPartly sunny.15 mph68%29.98 "HgN/A
8:00 AM63 °FPartly sunny.13 mph68%29.98 "HgN/A
7:30 AM61 °FPartly sunny.12 mph68%29.98 "HgN/A
7:00 AM61 °FPartly sunny.15 mph68%29.95 "HgN/A
6:30 AM61 °FPartly sunny.17 mph68%29.95 "HgN/A
5:30 AM61 °FPassing clouds.17 mph68%29.95 "HgN/A
5:00 AM61 °FPassing clouds.15 mph68%29.95 "HgN/A
4:30 AM61 °FPassing clouds.15 mph63%29.95 "HgN/A
4:00 AM61 °FPassing clouds.15 mph68%29.95 "HgN/A
3:30 AM61 °FPassing clouds.15 mph68%29.95 "HgN/A
3:00 AM63 °FPassing clouds.17 mph64%29.95 "HgN/A
2:30 AM63 °FPassing clouds.17 mph64%29.95 "HgN/A
2:00 AM63 °FPassing clouds.17 mph68%29.98 "HgN/A
1:00 AM63 °FPassing clouds.17 mph59%29.98 "HgN/A
12:30 AM63 °FPassing clouds.20 mph59%29.98 "HgN/A
12:00 AM63 °FPassing clouds.17 mph56%29.98 "HgN/A
11:30 PM
Mon, Apr 20
63 °FPassing clouds.18 mph56%29.98 "HgN/A
11:00 PM63 °FPassing clouds.20 mph59%29.98 "HgN/A
10:30 PM63 °FPassing clouds.20 mph59%29.98 "HgN/A
10:00 PM63 °FPassing clouds.20 mph59%29.98 "HgN/A
9:30 PM63 °FPassing clouds.20 mph59%29.98 "HgN/A
9:00 PM63 °FPassing clouds.16 mph64%29.98 "HgN/A
8:30 PM64 °FPassing clouds.18 mph56%29.98 "HgN/A
8:00 PM64 °FPassing clouds.20 mph56%29.95 "HgN/A
7:30 PM66 °FPassing clouds.22 mph52%29.95 "HgN/A
7:00 PM68 °FPassing clouds.18 mph46%29.95 "HgN/A
6:30 PM70 °FScattered clouds.16 mph50%29.95 "HgN/A
6:00 PM70 °FScattered clouds.17 mph46%29.95 "HgN/A
5:30 PM70 °FScattered clouds.18 mph46%29.98 "HgN/A
5:00 PM70 °FScattered clouds.18 mph46%29.98 "HgN/A
4:30 PM70 °FScattered clouds.15 mph53%29.98 "HgN/A
4:00 PM66 °FScattered clouds.18 mph73%29.98 "HgN/A
3:30 PM66 °FScattered clouds.21 mph68%30.01 "HgN/A
2:30 PM68 °FScattered clouds.21 mph69%30.01 "HgN/A
2:00 PM68 °FScattered clouds.21 mph64%30.01 "HgN/A
1:30 PM70 °FScattered clouds.18 mph64%30.04 "HgN/A
1:00 PM68 °FPassing clouds.17 mph69%30.04 "HgN/A
12:30 PM68 °FPassing clouds.13 mph69%30.07 "HgN/A
10:00 AM63 °FScattered clouds.No wind77%30.09 "HgN/A
Weather by CustomWeather, © 2015

See weather overviewHow to use our weather pages